Time,TemperatureF,DewpointF,PressureIn,WindDirection,WindDirectionDegrees,WindSpeedMPH,WindSpeedGustMPH,Humidity,HourlyPrecipIn,Conditions,Clouds,dailyrainin,SolarRadiationWatts/m^2,SoftwareType,DateUTC
2013-06-06 00:02:00,52.0,52.0,-100.00,North,2,5.0,11.0,96,-99.99,,,0.00,0.000000,,2013-06-06 07:02:00,
2013-06-06 00:12:00,52.0,52.0,-100.00,North,2,5.0,11.0,96,-99.99,,,0.00,0.000000,,2013-06-06 07:12:00,
2013-06-06 00:42:00,52.0,51.0,-100.00,North,10,6.0,13.0,97,-99.99,,,0.00,0.000000,,2013-06-06 07:42:00,
2013-06-06 00:52:00,52.0,51.0,-100.00,North,10,6.0,13.0,97,-99.99,,,0.00,0.000000,,2013-06-06 07:52:00,
2013-06-06 01:02:00,52.0,51.0,-100.00,North,10,6.0,13.0,97,-99.99,,,0.00,0.000000,,2013-06-06 08:02:00,
2013-06-06 01:12:00,52.0,51.0,-100.00,North,10,6.0,13.0,97,-99.99,,,0.00,0.000000,,2013-06-06 08:12:00,
2013-06-06 01:32:00,52.0,51.0,-100.00,North,11,4.0,10.0,97,-99.99,,,0.00,0.000000,,2013-06-06 08:32:00,
2013-06-06 01:42:00,52.0,51.0,-100.00,North,11,4.0,10.0,97,-99.99,,,0.00,0.000000,,2013-06-06 08:42:00,
2013-06-06 01:52:00,52.0,51.0,-100.00,North,11,4.0,10.0,97,-99.99,,,0.00,0.000000,,2013-06-06 08:52:00,
2013-06-06 02:02:00,52.0,51.0,-100.00,North,11,4.0,10.0,97,-99.99,,,0.00,0.000000,,2013-06-06 09:02:00,
2013-06-06 02:12:00,52.0,51.0,-100.00,North,11,4.0,10.0,97,-99.99,,,0.00,0.000000,,2013-06-06 09:12:00,
2013-06-06 02:43:00,52.0,51.0,-100.00,NNE,27,4.0,11.0,97,-99.99,,,0.00,0.000000,,2013-06-06 09:43:00,
2013-06-06 02:53:00,52.0,51.0,-100.00,NNE,27,4.0,11.0,97,-99.99,,,0.00,0.000000,,2013-06-06 09:53:00,
2013-06-06 03:02:00,52.0,51.0,-100.00,NNE,27,4.0,11.0,97,-99.99,,,0.00,0.000000,,2013-06-06 10:02:00,
2013-06-06 03:12:00,52.0,51.0,-100.00,NNE,27,4.0,11.0,97,-99.99,,,0.00,0.000000,,2013-06-06 10:12:00,
2013-06-06 03:33:00,53.0,52.0,-100.00,NNE,17,5.0,10.0,95,-99.99,,,0.00,0.000000,,2013-06-06 10:33:00,
2013-06-06 03:42:00,53.0,52.0,-100.00,NNE,17,5.0,10.0,95,-99.99,,,0.00,0.000000,,2013-06-06 10:42:00,
2013-06-06 03:53:00,53.0,52.0,-100.00,NNE,17,5.0,10.0,95,-99.99,,,0.00,0.000000,,2013-06-06 10:53:00,
2013-06-06 04:02:00,53.0,52.0,-100.00,NNE,17,5.0,10.0,95,-99.99,,,0.00,0.000000,,2013-06-06 11:02:00,
2013-06-06 04:12:00,53.0,52.0,-100.00,NNE,17,5.0,10.0,95,-99.99,,,0.00,0.000000,,2013-06-06 11:12:00,
2013-06-06 04:32:00,53.0,51.0,-100.00,NNE,16,4.0,11.0,94,-99.99,,,0.00,0.000000,,2013-06-06 11:32:00,
2013-06-06 04:42:00,53.0,51.0,-100.00,NNE,16,4.0,11.0,94,-99.99,,,0.00,0.000000,,2013-06-06 11:42:00,
2013-06-06 04:52:00,53.0,51.0,-100.00,NNE,16,4.0,11.0,94,-99.99,,,0.00,0.000000,,2013-06-06 11:52:00,
2013-06-06 05:02:00,53.0,51.0,-100.00,NNE,16,4.0,11.0,94,-99.99,,,0.00,0.000000,,2013-06-06 12:02:00,
2013-06-06 05:12:00,53.0,51.0,-100.00,NNE,16,4.0,11.0,94,-99.99,,,0.00,0.000000,,2013-06-06 12:12:00,
2013-06-06 05:42:00,52.0,51.0,-100.00,NNE,27,5.0,12.0,95,-99.99,,,0.00,0.000000,,2013-06-06 12:42:00,
2013-06-06 05:53:00,52.0,51.0,-100.00,NNE,27,5.0,12.0,95,-99.99,,,0.00,0.000000,,2013-06-06 12:53:00,
2013-06-06 06:03:00,52.0,51.0,-100.00,NNE,27,5.0,12.0,95,-99.99,,,0.00,0.000000,,2013-06-06 13:03:00,
2013-06-06 06:12:00,52.0,51.0,-100.00,NNE,27,5.0,12.0,95,-99.99,,,0.00,0.000000,,2013-06-06 13:12:00,
2013-06-06 06:42:00,52.0,51.0,-100.00,NNE,15,4.0,8.0,95,-99.99,,,0.00,9.880000,,2013-06-06 13:42:00,
2013-06-06 06:53:00,52.0,51.0,-100.00,NNE,15,4.0,8.0,95,-99.99,,,0.00,9.880000,,2013-06-06 13:53:00,
2013-06-06 07:02:00,52.0,51.0,-100.00,NNE,15,4.0,8.0,95,-99.99,,,0.00,9.880000,,2013-06-06 14:02:00,
2013-06-06 07:12:00,52.0,51.0,-100.00,NNE,15,4.0,8.0,95,-99.99,,,0.00,9.880000,,2013-06-06 14:12:00,
2013-06-06 07:32:00,52.0,51.0,-100.00,NNE,15,4.0,11.0,94,-99.99,,,0.00,25.920000,,2013-06-06 14:32:00,
2013-06-06 07:42:00,52.0,51.0,-100.00,NNE,15,4.0,11.0,94,-99.99,,,0.00,25.920000,,2013-06-06 14:42:00,
2013-06-06 07:53:00,52.0,51.0,-100.00,NNE,15,4.0,11.0,94,-99.99,,,0.00,25.920000,,2013-06-06 14:53:00,
2013-06-06 08:02:00,52.0,51.0,-100.00,NNE,15,4.0,11.0,94,-99.99,,,0.00,25.920000,,2013-06-06 15:02:00,
2013-06-06 08:12:00,52.0,51.0,-100.00,NNE,15,4.0,11.0,94,-99.99,,,0.00,25.920000,,2013-06-06 15:12:00,
2013-06-06 09:33:00,52.0,51.0,-100.00,North,4,5.0,11.0,94,-99.99,,,0.00,196.300003,,2013-06-06 16:33:00,
2013-06-06 09:53:00,52.0,51.0,-100.00,North,4,5.0,11.0,94,-99.99,,,0.00,196.300003,,2013-06-06 16:53:00,
2013-06-06 10:03:00,52.0,51.0,-100.00,North,4,5.0,11.0,94,-99.99,,,0.00,196.300003,,2013-06-06 17:03:00,
2013-06-06 10:12:00,52.0,51.0,-100.00,North,4,5.0,11.0,94,-99.99,,,0.00,196.300003,,2013-06-06 17:12:00,
2013-06-06 10:42:00,54.0,51.0,-100.00,North,5,6.0,13.0,90,-99.99,,,0.00,242.550003,,2013-06-06 17:42:00,
2013-06-06 10:53:00,54.0,51.0,-100.00,North,5,6.0,13.0,90,-99.99,,,0.00,242.550003,,2013-06-06 17:53:00,
2013-06-06 11:03:00,54.0,51.0,-100.00,North,5,6.0,13.0,90,-99.99,,,0.00,242.550003,,2013-06-06 18:03:00,
2013-06-06 11:12:00,54.0,51.0,-100.00,North,5,6.0,13.0,90,-99.99,,,0.00,242.550003,,2013-06-06 18:12:00,
2013-06-06 11:43:00,56.0,51.0,-100.00,North,350,7.0,13.0,84,-99.99,,,-99.99,509.160004,,2013-06-06 18:43:00,
2013-06-06 11:53:00,56.0,51.0,-100.00,North,350,7.0,13.0,84,-99.99,,,-99.99,509.160004,,2013-06-06 18:53:00,
2013-06-06 12:02:00,56.0,51.0,-100.00,North,350,7.0,13.0,84,-99.99,,,-99.99,509.160004,,2013-06-06 19:02:00,
2013-06-06 12:12:00,56.0,51.0,-100.00,North,350,7.0,13.0,84,-99.99,,,-99.99,509.160004,,2013-06-06 19:12:00,
2013-06-06 12:42:00,57.0,51.0,-100.00,NNW,344,10.0,22.0,79,-99.99,,,0.00,925.109985,,2013-06-06 19:42:00,
2013-06-06 12:53:00,57.0,51.0,-100.00,NNW,344,10.0,22.0,79,-99.99,,,0.00,925.109985,,2013-06-06 19:53:00,
2013-06-06 13:02:00,57.0,51.0,-100.00,NNW,344,10.0,22.0,79,-99.99,,,0.00,925.109985,,2013-06-06 20:02:00,
2013-06-06 13:12:00,57.0,51.0,-100.00,NNW,344,10.0,22.0,79,-99.99,,,0.00,925.109985,,2013-06-06 20:12:00,
2013-06-06 13:33:00,57.0,51.0,-100.00,NNW,341,12.0,22.0,78,-99.99,,,0.00,953.000000,,2013-06-06 20:33:00,
2013-06-06 13:42:00,57.0,51.0,-100.00,NNW,341,12.0,22.0,78,-99.99,,,0.00,953.000000,,2013-06-06 20:42:00,
2013-06-06 13:53:00,57.0,51.0,-100.00,NNW,341,12.0,22.0,78,-99.99,,,0.00,953.000000,,2013-06-06 20:53:00,
2013-06-06 14:03:00,57.0,51.0,-100.00,NNW,341,12.0,22.0,78,-99.99,,,0.00,953.000000,,2013-06-06 21:03:00,
2013-06-06 14:12:00,57.0,51.0,-100.00,NNW,341,12.0,22.0,78,-99.99,,,0.00,953.000000,,2013-06-06 21:12:00,
2013-06-06 14:43:00,59.0,51.0,-100.00,NNW,344,11.0,20.0,76,-99.99,,,0.00,941.380005,,2013-06-06 21:43:00,
2013-06-06 14:53:00,59.0,51.0,-100.00,NNW,344,11.0,20.0,76,-99.99,,,0.00,941.380005,,2013-06-06 21:53:00,
2013-06-06 15:02:00,59.0,51.0,-100.00,NNW,344,11.0,20.0,76,-99.99,,,0.00,941.380005,,2013-06-06 22:02:00,
2013-06-06 15:12:00,59.0,51.0,-100.00,NNW,344,11.0,20.0,76,-99.99,,,0.00,941.380005,,2013-06-06 22:12:00,
2013-06-06 15:43:00,58.0,51.0,-100.00,NNW,346,12.0,27.0,78,-99.99,,,0.00,887.919983,,2013-06-06 22:43:00,
2013-06-06 15:53:00,58.0,51.0,-100.00,NNW,346,12.0,27.0,78,-99.99,,,0.00,887.919983,,2013-06-06 22:53:00,
2013-06-06 16:02:00,58.0,51.0,-100.00,NNW,346,12.0,27.0,78,-99.99,,,0.00,887.919983,,2013-06-06 23:02:00,
2013-06-06 16:12:00,58.0,51.0,-100.00,NNW,346,12.0,27.0,78,-99.99,,,0.00,887.919983,,2013-06-06 23:12:00,
2013-06-06 16:42:00,58.0,52.0,-100.00,NNW,347,12.0,23.0,79,-99.99,,,0.00,771.000000,,2013-06-06 23:42:00,
2013-06-06 16:52:00,58.0,52.0,-100.00,NNW,347,12.0,23.0,79,-99.99,,,0.00,771.000000,,2013-06-06 23:52:00,
2013-06-06 17:02:00,58.0,52.0,-100.00,NNW,347,12.0,23.0,79,-99.99,,,0.00,771.000000,,2013-06-07 00:02:00,
2013-06-06 17:12:00,58.0,52.0,-100.00,NNW,347,12.0,23.0,79,-99.99,,,0.00,771.000000,,2013-06-07 00:12:00,
2013-06-06 18:32:00,57.0,51.0,-100.00,North,352,9.0,18.0,80,-99.99,,,0.00,400.149994,,2013-06-07 01:32:00,
2013-06-06 18:42:00,57.0,51.0,-100.00,North,352,9.0,18.0,80,-99.99,,,0.00,400.149994,,2013-06-07 01:42:00,
2013-06-06 18:52:00,57.0,51.0,-100.00,North,352,9.0,18.0,80,-99.99,,,0.00,400.149994,,2013-06-07 01:52:00,
2013-06-06 19:02:00,57.0,51.0,-100.00,North,352,9.0,18.0,80,-99.99,,,0.00,400.149994,,2013-06-07 02:02:00,
2013-06-06 19:12:00,57.0,51.0,-100.00,North,352,9.0,18.0,80,-99.99,,,0.00,400.149994,,2013-06-07 02:12:00,
2013-06-06 19:32:00,56.0,51.0,-100.00,North,354,9.0,18.0,84,-99.99,,,0.00,178.509995,,2013-06-07 02:32:00,
2013-06-06 19:42:00,56.0,51.0,-100.00,North,354,9.0,18.0,84,-99.99,,,0.00,178.509995,,2013-06-07 02:42:00,
2013-06-06 19:52:00,56.0,51.0,-100.00,North,354,9.0,18.0,84,-99.99,,,0.00,178.509995,,2013-06-07 02:52:00,
2013-06-06 20:02:00,56.0,51.0,-100.00,North,354,9.0,18.0,84,-99.99,,,0.00,178.509995,,2013-06-07 03:02:00,
2013-06-06 20:12:00,56.0,51.0,-100.00,North,354,9.0,18.0,84,-99.99,,,0.00,178.509995,,2013-06-07 03:12:00,
2013-06-06 20:33:00,55.0,51.0,-100.00,NNE,21,4.0,12.0,85,-99.99,,,0.00,49.389999,,2013-06-07 03:33:00,
2013-06-06 20:43:00,55.0,51.0,-100.00,NNE,21,4.0,12.0,85,-99.99,,,0.00,49.389999,,2013-06-07 03:43:00,
2013-06-06 20:53:00,55.0,51.0,-100.00,NNE,21,4.0,12.0,85,-99.99,,,0.00,49.389999,,2013-06-07 03:53:00,
2013-06-06 21:03:00,55.0,51.0,-100.00,NNE,21,4.0,12.0,85,-99.99,,,0.00,49.389999,,2013-06-07 04:03:00,
2013-06-06 21:12:00,55.0,51.0,-100.00,NNE,21,4.0,12.0,85,-99.99,,,0.00,49.389999,,2013-06-07 04:12:00,
2013-06-06 21:33:00,54.0,51.0,-100.00,NNE,26,4.0,9.0,86,-99.99,,,0.00,1.160000,,2013-06-07 04:33:00,
2013-06-06 21:42:00,54.0,51.0,-100.00,NNE,26,4.0,9.0,86,-99.99,,,0.00,1.160000,,2013-06-07 04:42:00,
2013-06-06 21:53:00,54.0,51.0,-100.00,NNE,26,4.0,9.0,86,-99.99,,,0.00,1.160000,,2013-06-07 04:53:00,
2013-06-06 22:02:00,54.0,51.0,-100.00,NNE,26,4.0,9.0,86,-99.99,,,0.00,1.160000,,2013-06-07 05:02:00,
2013-06-06 22:12:00,54.0,51.0,-100.00,NNE,26,4.0,9.0,86,-99.99,,,0.00,1.160000,,2013-06-07 05:12:00,
2013-06-06 22:32:00,54.0,51.0,-100.00,NNE,20,5.0,13.0,88,-99.99,,,0.00,0.000000,,2013-06-07 05:32:00,
2013-06-06 22:42:00,54.0,51.0,-100.00,NNE,20,5.0,13.0,88,-99.99,,,0.00,0.000000,,2013-06-07 05:42:00,
2013-06-06 22:52:00,54.0,51.0,-100.00,NNE,20,5.0,13.0,88,-99.99,,,0.00,0.000000,,2013-06-07 05:52:00,
2013-06-06 23:02:00,54.0,51.0,-100.00,NNE,20,5.0,13.0,88,-99.99,,,0.00,0.000000,,2013-06-07 06:02:00,
2013-06-06 23:12:00,54.0,51.0,-100.00,NNE,20,5.0,13.0,88,-99.99,,,0.00,0.000000,,2013-06-07 06:12:00,
2013-06-06 23:42:00,54.0,51.0,-100.00,North,7,4.0,8.0,89,-99.99,,,0.00,0.000000,,2013-06-07 06:42:00,
2013-06-06 23:52:00,54.0,51.0,-100.00,North,7,4.0,8.0,89,-99.99,,,0.00,0.000000,,2013-06-07 06:52:00,